Location: *
(51.4660°N, 0.3360°W)
Time: 21:40:41
(UTC+00:00)

H-2A R/B - Pass Details

Date: 19 September 2019
Orbit: 734 x 836 km, 98.3° (Epoch: 19 October)

Event Time Altitude Azimuth Distance (km) Brightness Sun altitude
Exits shadow 18:33:13 - 122° (ESE) 2,863 4.4 -4.8°
Reaches altitude 10° 18:34:58 10° 113° (ESE) 2,260 3.8 -5.1°
Maximum altitude 18:38:58 25° 59° (ENE) 1,494 3.1 -5.7°
Drops below altitude 10° 18:43:02 10° 5° (N) 2,313 4.6 -6.3°
Sets 18:45:43 0° 353° (N) 3,261 5.5 -6.8°
